This is the latest recevied weather packets stored in our database for station/object WA9LT. If no packets are shown the sender has not sent any weather packets the latest 1 day(s).
| Time | Temp. | Humidity | Pressure | Rain* | Wind** | Luminosity | Snow |
|---|---|---|---|---|---|---|---|
| 1778016304 | 12.78° C | 69% | 0 hPa | 0 mm | 3.13 m/s, 340° | - | - |
| 1778016046 | 12.78° C | 69% | 0 hPa | 0 mm | 3.13 m/s, 340° | - | - |
| 1778015147 | 13.33° C | 69% | 0 hPa | 0 mm | 1.34 m/s, 317° | - | - |
| 1778013346 | 13.33° C | 69% | 0 hPa | 0 mm | 2.24 m/s, 353° | - | - |
| 1778012778 | 12.78° C | 69% | 0 hPa | 0 mm | 2.24 m/s, 280° | - | - |
| 1778012448 | 12.78° C | 69% | 0 hPa | 0 mm | 2.24 m/s, 280° | - | - |
| 1778011548 | 12.78° C | 69% | 0 hPa | 0 mm | 1.79 m/s, 285° | - | - |
| 1778010978 | 13.33° C | 69% | 0 hPa | 0 mm | 2.68 m/s, 5° | - | - |
| 1778010646 | 13.33° C | 69% | 0 hPa | 0 mm | 2.68 m/s, 5° | - | - |
| 1778009746 | 12.78° C | 69% | 0 hPa | 0 mm | 2.24 m/s, 333° | - | - |
| 1778008848 | 12.78° C | 69% | 1016.3 hPa | 0 mm | 1.79 m/s, 10° | - | - |
| 1778007947 | 12.78° C | 69% | 1016.3 hPa | 0 mm | 1.79 m/s, 342° | - | - |
| 1778007377 | 12.78° C | 69% | 1016.3 hPa | 0 mm | 0.45 m/s, 218° | - | - |
| 1778007046 | 12.78° C | 69% | 1016.3 hPa | 0 mm | 0.45 m/s, 218° | - | - |
| 1778006147 | 12.78° C | 69% | 0 hPa | 0 mm | 2.68 m/s, 324° | - | - |
| 1778005576 | 12.78° C | 69% | 0 hPa | 0 mm | 2.24 m/s, 296° | - | - |
| 1778005246 | 12.78° C | 69% | 0 hPa | 0 mm | 2.24 m/s, 296° | - | - |
| 1778004347 | 12.78° C | 69% | 1016.3 hPa | 0 mm | 0.89 m/s, 274° | - | - |
| 1778003448 | 12.78° C | 69% | 0 hPa | 0 mm | 1.79 m/s, 277° | - | - |
| 1778002546 | 12.78° C | 69% | 0 hPa | 0 mm | 0.89 m/s, 3° | - | - |
| 1778001648 | 12.22° C | 69% | 1016.3 hPa | 0 mm | 2.24 m/s, 316° | - | - |
| 1778000747 | 12.22° C | 69% | 1016.3 hPa | 0 mm | 2.24 m/s, 4° | - | - |
| 1778000175 | 11.67° C | 69% | 0 hPa | 0 mm | 2.24 m/s, 1° | - | - |
| 1777999846 | 11.67° C | 69% | 0 hPa | 0 mm | 2.24 m/s, 1° | - | - |
| 1777998946 | 12.22° C | 69% | 0 hPa | 0 mm | 0.89 m/s, 7° | - | - |
* Rain latest hour (hover to see other rain measurements)
** Current wind speed in m/s (hover to see current wind gust speed)